Vorticity
nan nan nan nan nan nan nan nan nan nan nan nan nan nan nan nan nan nan nan nan nan nan nan nan nan nan nan nan nan nan nan nan nan nan nan nan nan nan nan nan nan nan nan nan nan nan nan nan nan nan nan nan nan nan nan nan nan nan nan nan nan nan nan nan nan nan nan nan nan
nan 9 9 9 9 9 9 9 8 7 6 7 7 7 8 8 8 8 7 8 7 7 8 7 3 1 0 4 9 10 9 7 7 10 12 12 11 11 13 12 9 10 11 14 19 22 18 17 19 17 14 12 11 11 11 9 10 10 10 9 11 13 15 16 14 13 15 18 nan
nan 9 9 9 8 8 9 9 6 5 6 9 8 7 8 8 8 8 7 5 5 7 9 6 3 3 5 9 10 8 7 6 8 11 13 11 8 10 12 10 8 11 14 15 16 16 14 18 22 19 15 10 8 9 10 11 10 12 14 16 14 13 13 13 13 15 17 17 nan
nan 9 9 8 6 8 10 8 4 6 9 10 9 9 9 9 8 7 6 6 9 10 8 4 5 6 8 7 5 6 6 6 9 12 12 9 7 9 10 10 11 13 14 13 13 14 16 24 27 20 14 10 12 12 11 9 10 12 14 17 14 12 11 10 12 13 13 11 nan
nan 9 9 7 7 9 10 7 5 8 10 10 8 8 8 8 7 6 6 8 9 6 2 4 8 7 4 2 4 7 9 10 13 14 10 7 9 9 9 10 13 14 14 12 13 15 18 27 28 19 14 14 15 12 8 6 9 11 12 12 11 11 10 9 10 10 9 8 nan
nan 8 8 8 8 10 9 7 7 9 10 8 5 5 6 6 4 3 5 7 6 4 6 11 11 7 3 4 8 11 11 12 11 9 7 9 9 7 8 11 13 14 14 12 13 16 19 27 26 17 13 14 13 10 9 10 12 11 11 9 10 10 9 8 9 9 8 5 nan
nan 8 9 8 9 9 8 6 8 9 10 8 5 4 4 4 2 3 7 10 10 10 12 12 7 5 4 7 10 10 10 9 7 6 10 10 7 7 9 11 11 12 13 15 16 17 19 24 23 16 13 14 13 12 11 12 10 9 8 8 9 9 9 10 9 9 7 5 nan
nan 9 9 9 9 9 7 8 9 9 10 7 3 3 4 5 5 8 12 14 12 10 11 7 1 3 5 8 9 9 9 8 8 8 10 7 5 8 11 11 10 11 14 16 15 15 19 23 19 14 15 16 14 12 11 10 9 8 7 8 8 8 8 9 8 6 6 8 nan
nan 9 9 10 9 8 8 9 9 9 8 5 3 4 6 7 9 12 15 14 10 8 8 5 2 4 7 9 10 11 11 9 8 8 7 6 7 9 12 11 9 12 15 14 12 13 21 22 14 12 14 16 14 14 13 14 13 11 10 12 10 8 6 6 5 5 6 9 nan
nan 9 10 10 8 8 8 9 11 10 9 7 6 7 8 9 10 12 14 11 7 6 7 5 5 7 8 11 12 11 11 10 8 7 7 7 7 9 12 11 8 11 13 14 12 14 20 17 9 8 11 14 15 19 22 23 21 17 15 13 9 7 6 6 7 8 10 10 nan
nan 9 10 8 7 8 9 11 12 11 10 8 7 8 9 10 10 10 10 7 6 6 8 7 7 9 11 12 9 9 10 10 8 7 7 7 7 8 10 9 8 10 13 14 16 17 17 10 4 5 10 14 16 19 22 27 30 26 20 12 10 10 10 9 10 13 14 12 nan
nan 9 9 8 7 9 10 12 12 11 9 7 8 9 10 9 8 8 8 7 9 11 11 9 9 10 12 10 6 7 8 7 7 9 8 7 7 8 9 9 9 10 14 17 18 16 12 6 5 6 8 17 19 13 12 22 33 32 28 20 16 14 13 12 13 13 13 12 nan
nan 9 8 8 8 10 11 13 12 10 8 7 9 10 10 7 7 8 9 10 12 13 10 8 10 11 11 7 6 7 7 7 8 9 8 8 8 8 9 9 8 11 16 17 14 13 10 7 7 9 9 14 15 10 8 16 25 28 29 26 22 19 16 14 14 13 11 10 nan
nan 9 8 8 9 11 11 12 12 10 7 7 9 10 9 9 9 9 9 10 10 11 10 10 11 9 6 5 6 6 8 8 7 8 8 9 8 8 10 8 8 12 16 14 10 9 10 10 9 10 9 10 11 9 10 12 15 17 20 23 23 22 19 18 17 16 14 12 nan
nan 9 8 8 10 11 10 12 12 9 7 8 9 9 10 10 9 9 7 8 10 12 11 10 8 6 5 6 7 8 9 9 8 8 8 8 8 8 9 8 8 11 14 13 11 9 9 10 10 10 9 9 9 9 9 9 9 9 11 16 20 21 21 20 20 21 20 16 nan
nan 8 9 9 9 9 10 11 11 8 7 7 7 9 10 10 9 7 7 9 12 11 8 6 8 8 7 6 8 9 10 9 8 8 8 8 7 7 8 9 9 10 12 14 13 11 9 10 10 8 8 9 9 8 8 8 7 6 7 10 14 16 17 18 19 22 23 22 nan
nan 8 8 8 8 8 8 10 9 6 5 5 7 9 10 10 8 7 7 9 10 7 4 7 10 9 7 7 8 10 10 9 8 8 7 6 6 7 8 8 9 10 13 15 13 11 10 10 10 8 8 9 9 8 8 9 8 6 6 7 9 10 11 12 14 15 16 17 nan
nan 8 8 8 7 7 7 8 7 6 6 7 9 10 9 8 7 7 7 8 7 5 6 9 10 8 7 7 9 10 9 7 7 7 7 6 7 7 7 8 9 11 14 15 13 11 10 10 10 10 9 8 8 8 8 8 8 6 7 7 7 7 7 7 9 10 8 8 nan
nan 8 8 8 8 7 7 7 7 8 8 10 9 8 7 7 8 8 8 7 7 7 9 10 10 8 6 7 9 9 9 8 6 7 8 8 8 8 7 7 9 11 14 16 14 11 10 10 10 10 10 9 7 8 8 8 8 7 7 7 6 6 6 7 8 8 7 6 nan
nan 8 8 8 8 8 7 7 8 8 9 9 8 8 8 9 10 9 8 8 8 9 10 10 9 8 7 7 8 9 11 9 5 7 8 9 8 8 8 8 9 12 16 19 16 11 9 9 10 10 10 9 7 7 8 9 8 8 10 9 5 5 6 7 7 7 7 7 nan
nan 8 8 8 8 8 8 8 8 9 9 9 9 9 10 10 10 10 9 9 9 10 10 10 9 9 8 8 8 9 11 9 5 7 9 9 9 9 10 9 9 13 18 23 19 10 7 8 10 11 10 9 8 8 9 9 8 8 10 10 7 6 6 7 7 7 7 8 nan
nan 8 9 9 9 8 8 8 9 9 10 10 10 10 10 10 10 10 10 10 10 10 10 11 10 10 9 9 9 10 10 8 6 7 8 9 9 10 11 10 9 12 19 27 23 12 6 8 10 10 10 9 8 8 8 9 8 8 8 8 9 9 8 7 7 7 7 9 nan
nan 9 10 11 9 8 8 9 9 9 10 10 10 10 11 10 10 10 10 11 10 9 11 12 10 9 9 10 9 9 9 8 7 7 7 8 8 10 13 12 9 11 21 28 23 15 10 9 10 10 10 9 9 7 7 8 9 8 6 7 10 10 10 8 7 8 7 8 nan
nan 9 11 9 8 8 9 9 9 10 10 10 11 11 10 11 11 11 10 10 9 9 11 11 8 8 10 10 10 9 9 8 8 7 7 8 8 10 15 15 11 11 19 22 20 18 18 17 14 12 11 10 9 8 7 7 9 9 8 8 8 9 9 8 8 8 7 8 nan
nan 9 9 8 8 9 9 8 9 10 10 11 11 11 10 11 11 11 10 9 9 10 10 10 10 11 11 11 9 9 9 10 9 8 8 8 8 10 14 15 12 12 12 11 12 16 21 24 21 17 13 10 9 8 7 6 8 10 10 9 8 9 8 8 9 8 8 9 nan
nan 9 9 9 9 8 8 8 9 10 10 11 10 11 11 11 11 10 9 10 10 10 11 12 12 11 11 10 8 8 10 10 8 8 8 7 7 9 13 15 15 12 1 0 7 10 13 19 22 23 19 12 8 8 8 7 7 9 10 10 9 9 9 8 7 8 10 10 nan
nan 9 9 9 9 8 8 8 9 10 10 11 11 11 11 11 10 9 10 10 10 11 13 13 12 12 12 10 7 7 9 9 8 8 8 7 6 8 12 15 16 9 -10 -10 4 9 10 11 15 20 22 17 9 9 9 7 7 9 10 10 9 9 10 9 8 9 10 9 nan
nan 9 9 9 9 9 8 8 9 10 10 11 11 11 10 10 9 10 11 10 11 12 13 13 12 13 12 7 5 6 8 9 10 9 8 6 6 8 10 12 10 1 -13 -8 8 12 10 8 10 14 19 20 13 9 8 8 9 10 10 9 8 9 10 11 10 9 8 9 nan
nan 9 9 10 9 8 8 8 9 10 11 11 11 10 10 10 10 11 11 10 11 12 13 12 11 9 6 4 6 7 9 10 11 9 7 6 7 8 8 8 6 -1 -8 -0 13 15 10 6 8 10 14 19 17 12 8 8 9 9 10 9 7 8 10 11 9 9 9 9 nan
nan 9 9 9 9 8 8 7 8 10 12 12 10 10 11 11 10 10 11 11 11 11 10 8 6 4 4 6 9 9 9 10 9 7 6 7 7 8 7 7 7 3 -4 -1 9 13 11 7 6 8 10 14 15 12 9 8 8 9 9 7 6 7 10 9 8 9 10 10 nan
nan 9 8 9 9 8 7 7 8 10 11 10 10 11 11 10 10 10 11 11 11 9 7 5 5 5 7 9 9 8 8 8 8 7 7 7 7 7 7 8 8 6 -3 -3 4 11 15 11 6 7 9 11 13 11 8 7 7 8 8 6 5 7 10 10 7 6 7 9 nan
nan 8 9 9 9 8 7 7 8 9 10 10 11 12 11 10 10 10 11 11 10 9 7 7 7 8 9 9 9 8 8 8 8 7 7 7 7 7 9 11 11 7 -2 -3 3 9 16 16 9 7 7 10 12 9 8 7 7 7 6 6 6 7 11 11 6 3 4 9 nan
nan 9 9 9 8 8 7 7 8 9 10 11 12 12 12 11 11 11 11 11 10 9 9 8 8 8 9 9 9 9 10 9 8 7 7 7 7 8 10 14 13 4 -4 -3 3 6 12 16 15 10 7 11 13 8 7 8 8 6 5 5 6 6 7 9 8 5 4 7 nan
nan 9 9 9 8 8 7 7 8 8 9 10 11 11 12 11 11 11 11 11 10 10 9 9 9 9 9 8 8 9 10 9 7 7 7 7 7 8 11 15 9 -2 -6 -1 4 5 7 14 20 16 12 13 14 8 5 7 8 6 6 6 7 7 9 9 8 7 5 6 nan
nan 9 9 8 8 8 7 7 8 8 9 10 10 11 11 12 12 12 11 10 10 10 10 9 9 9 8 8 8 8 8 8 7 7 8 8 7 7 9 10 4 -3 -2 3 6 6 6 11 19 20 19 18 14 8 5 5 6 6 6 7 7 8 10 11 11 9 8 5 nan
nan 9 8 8 8 7 7 7 8 8 8 9 10 10 11 12 13 12 11 11 11 10 10 10 9 9 8 8 8 8 7 7 8 8 9 8 7 7 8 7 4 2 3 5 5 6 5 7 13 21 27 23 12 7 6 5 5 4 5 7 7 7 10 12 13 12 11 7 nan
nan 8 8 8 7 7 7 7 7 8 8 8 9 10 11 12 13 12 12 11 11 10 10 10 9 9 8 8 7 7 6 7 8 9 9 9 8 8 7 7 6 5 5 4 4 4 5 5 8 19 31 27 12 8 7 7 6 4 5 6 7 7 10 12 12 12 12 8 nan
nan 9 8 7 7 7 7 7 7 7 8 8 9 9 10 12 13 12 11 11 11 10 10 9 9 9 8 7 7 6 7 7 8 9 10 10 9 8 7 8 8 7 4 2 2 3 4 5 6 14 29 28 14 11 9 7 5 5 6 7 7 7 10 11 10 10 10 5 nan
nan 9 8 7 7 7 7 7 7 8 8 9 9 9 9 11 11 10 11 11 10 10 10 9 9 9 8 8 8 7 7 8 10 11 11 10 9 8 8 9 9 7 3 1 2 4 4 4 5 9 24 29 21 14 9 6 5 5 6 8 8 7 9 10 10 9 7 2 nan
nan 9 8 8 7 7 7 7 8 9 9 8 8 9 9 10 10 9 11 11 10 11 11 11 9 8 8 9 9 8 8 9 10 10 10 10 9 9 11 12 9 7 5 4 4 5 5 5 6 8 20 28 24 17 11 7 5 5 6 8 8 8 8 9 9 8 7 5 nan
nan nan nan nan nan nan nan nan nan nan nan nan nan nan nan nan nan nan nan nan nan nan nan nan nan nan nan nan nan nan nan nan nan nan nan nan nan nan nan nan nan nan nan nan nan nan nan nan nan nan nan nan nan nan nan nan nan nan nan nan nan nan nan nan nan nan nan nan nan
CAPE
nan nan nan nan nan nan nan nan nan nan nan nan nan nan nan nan nan nan nan nan nan nan nan nan nan nan nan nan nan nan nan nan nan nan nan 0 1 4 4 3 1 1 1 1 3 3 5 10 8 8 13 15 17 24 24 36 41 39 39 41 42 45 45 39 26 26 20 17 18
nan nan nan nan nan nan nan nan nan nan nan nan nan nan nan nan nan nan nan nan nan nan nan nan nan nan nan nan nan nan nan nan nan nan nan nan 2 3 3 3 2 2 2 3 3 3 3 6 10 10 10 12 16 17 17 35 37 35 35 39 33 26 26 20 17 17 15 15 16
nan nan nan nan nan nan nan nan nan nan nan nan nan nan nan nan nan nan nan nan nan nan nan nan nan nan nan nan nan nan nan nan nan nan nan nan 0 0 0 2 2 4 4 3 2 2 3 6 12 12 15 14 18 14 14 20 25 32 32 34 27 22 22 15 13 13 12 12 13
nan nan nan nan nan nan nan nan nan nan nan nan nan nan nan nan nan nan nan nan nan nan nan nan nan nan nan nan nan nan nan nan nan nan nan nan 0 0 0 1 1 2 2 2 2 2 6 14 13 13 10 14 16 15 15 13 23 28 28 32 23 21 21 15 14 14 12 9 11
nan nan nan nan nan nan nan nan nan nan nan nan nan nan nan nan nan nan nan nan nan nan nan nan nan nan nan nan nan nan nan nan nan nan nan nan 0 1 1 0 1 3 3 5 4 4 14 23 11 11 9 11 15 13 13 15 18 22 22 23 21 18 18 13 11 11 10 9 12
nan nan nan nan nan nan nan nan nan nan nan nan nan nan nan nan nan nan nan nan nan nan nan nan nan nan nan nan nan nan nan nan nan nan nan 0 1 1 1 1 2 3 3 5 11 11 20 24 12 12 9 9 13 13 13 13 14 20 20 20 21 17 17 10 9 9 9 11 12
nan nan nan nan nan nan nan nan nan nan nan nan nan nan nan nan nan nan nan nan nan nan nan nan nan nan nan nan nan nan nan nan nan nan nan nan 0 2 2 3 3 4 4 8 17 17 22 22 13 13 10 11 4 11 11 13 12 15 15 16 15 13 13 13 10 10 9 10 11
nan nan nan nan nan nan nan nan nan nan nan nan nan nan nan nan nan nan nan nan nan nan nan nan nan nan nan nan nan nan nan nan nan nan nan nan 0 2 2 2 3 4 4 10 22 22 21 19 22 22 13 6 1 3 3 6 11 11 11 15 13 13 13 16 15 15 11 11 13
nan nan nan nan nan nan nan nan nan nan nan nan nan nan nan nan nan nan nan nan nan nan nan nan nan nan nan nan nan nan nan nan nan nan nan nan 2 3 3 2 2 3 3 11 21 21 20 13 20 20 22 17 5 2 2 3 10 12 12 11 10 10 10 9 12 12 9 8 10
nan nan nan nan nan nan nan nan nan nan nan nan nan nan nan nan nan nan nan nan nan nan nan nan nan nan nan nan nan nan nan nan nan nan nan 1 5 5 5 2 2 2 2 10 26 26 22 10 9 9 14 22 20 13 13 5 6 12 12 7 6 7 7 5 5 5 5 7 7
nan nan nan nan nan nan nan nan nan nan nan nan nan nan nan nan nan nan nan nan nan nan nan nan nan nan nan nan nan nan nan nan nan 0 0 1 4 5 5 2 1 2 2 7 32 32 24 8 7 7 10 14 21 24 24 15 7 8 8 3 5 5 5 2 3 3 3 5 6
nan nan nan nan nan nan nan nan nan nan nan nan nan nan nan nan nan nan nan nan nan nan nan nan nan nan nan nan 0 0 nan nan nan nan nan 0 2 4 4 5 2 2 2 3 32 32 20 11 8 8 9 9 11 15 15 18 15 7 7 5 4 4 4 2 1 1 1 3 3
nan nan nan nan nan nan nan nan nan nan nan nan nan nan nan nan nan nan nan nan nan nan nan nan 0 0 0 0 0 0 nan nan nan nan nan nan 0 2 2 6 4 3 3 8 30 30 14 9 8 8 8 5 5 8 8 10 14 13 13 5 5 5 5 5 3 3 2 3 2
nan nan nan nan nan nan nan nan nan nan nan nan nan nan nan nan nan nan nan nan nan nan nan nan nan nan nan nan nan nan nan nan nan nan nan nan nan 1 1 5 6 4 4 10 30 30 5 10 7 7 6 4 3 4 4 4 5 14 14 17 12 9 9 6 5 5 5 5 2
nan nan nan nan 0 0 nan nan nan nan nan nan nan nan nan nan nan nan nan nan nan nan nan nan nan nan nan nan nan nan nan nan nan nan nan nan nan 0 0 3 7 5 5 15 38 38 1 5 7 7 4 4 3 3 3 3 4 7 7 24 28 17 17 9 7 7 6 7 25
nan nan nan 0 0 0 0 0 nan nan nan nan nan nan nan nan nan nan nan nan nan nan nan nan nan nan nan 0 nan nan nan nan nan nan nan nan nan nan nan 1 4 7 7 13 49 49 0 3 5 5 3 4 3 3 3 3 5 7 7 9 16 22 22 18 23 23 20 13 72
nan 0 0 1 1 1 1 nan nan nan nan nan nan nan nan nan nan nan nan 0 nan nan nan nan nan nan nan nan nan nan nan nan nan 0 0 0 0 nan nan 2 4 4 4 6 48 48 4 1 4 4 3 3 2 2 2 3 3 6 6 6 7 10 10 17 18 18 20 23 64
nan 1 1 3 3 3 3 4 3 3 3 4 4 1 1 1 2 1 1 1 1 0 0 0 0 0 0 0 nan nan 0 1 6 5 5 5 4 2 2 4 5 1 1 4 36 36 0 nan 0 0 1 0 0 0 0 0 1 2 2 2 2 1 1 2 5 5 5 5 5
0 1 1 2 3 3 3 5 5 5 5 6 6 6 6 5 4 3 3 2 1 1 1 1 0 nan nan 0 0 0 1 0 7 9 9 6 5 3 3 5 8 2 2 2 28 28 nan nan nan nan nan nan nan nan nan nan nan 0 0 0 nan 0 0 1 2 2 3 5 5
0 1 1 2 3 3 4 6 7 7 6 6 7 7 7 4 5 7 7 6 1 3 3 3 1 0 0 0 0 0 1 nan 2 6 6 3 4 3 3 6 10 2 2 2 23 23 nan nan nan nan nan nan nan nan nan nan nan nan nan nan nan nan nan nan nan nan 0 3 9
1 2 2 2 3 3 5 7 7 7 6 7 6 4 4 4 5 5 5 3 2 3 3 3 2 2 2 1 1 1 3 nan 1 2 2 2 3 2 2 2 6 2 2 2 26 26 nan nan nan nan nan nan nan nan nan nan nan nan nan nan nan nan nan nan nan nan 0 3 9
2 3 3 3 4 4 5 5 5 5 4 4 3 3 3 4 4 2 2 3 4 4 4 3 1 3 3 3 5 5 4 nan 0 0 0 0 1 0 0 0 0 1 1 23 29 29 nan nan nan nan nan nan nan nan nan nan nan nan nan nan nan nan nan nan nan nan nan 1 6
2 3 3 3 4 4 5 4 4 4 2 2 2 3 3 3 2 2 2 3 6 6 6 3 1 5 5 8 7 7 3 0 nan nan nan nan 0 0 0 1 nan nan nan 47 37 37 nan nan nan nan nan nan nan nan nan nan nan nan nan nan nan nan nan nan nan nan nan 0 5
2 2 2 2 2 2 4 4 3 3 1 1 2 2 2 2 1 5 5 9 11 12 12 9 5 2 2 4 2 2 0 nan nan nan nan nan nan nan nan 1 nan nan nan 37 64 64 23 nan nan nan nan nan nan nan nan nan nan nan nan nan nan nan nan nan nan nan nan nan 3
2 1 1 0 0 0 2 2 1 1 1 1 1 1 1 1 1 3 3 6 6 6 6 9 10 2 2 0 nan nan nan nan nan nan nan nan nan nan nan nan nan nan nan 43 112 112 68 9 nan nan nan nan nan nan nan nan nan nan nan nan nan nan nan nan nan nan 0 nan 1
1 1 1 nan nan nan 0 1 0 0 0 0 0 0 0 1 1 2 2 2 1 2 2 6 5 3 3 0 nan nan nan nan nan 0 0 nan nan nan nan nan nan nan nan 77 147 147 82 36 nan nan nan nan nan nan nan nan nan nan nan nan nan nan nan nan 0 0 3 3 6
0 nan nan nan nan nan nan 0 nan nan nan nan 0 0 0 0 1 1 1 1 0 1 1 4 4 1 1 nan nan nan nan nan nan nan nan nan nan nan nan nan nan nan nan 124 260 260 89 53 6 6 nan nan nan nan nan nan nan nan nan nan nan nan nan nan 0 0 1 5 14
nan nan nan nan nan nan nan 0 nan nan nan nan nan nan nan nan 0 0 0 0 0 1 1 3 2 nan nan nan nan nan nan nan nan nan nan nan nan nan nan nan nan nan nan 132 338 338 126 76 21 21 nan nan nan nan nan nan nan nan nan nan nan nan nan nan 0 0 0 3 14
nan nan nan nan nan nan nan nan nan nan nan nan nan nan nan nan nan nan nan nan nan 0 0 1 0 nan nan nan nan nan nan nan nan nan nan nan nan nan nan nan nan nan nan 96 290 290 212 97 43 43 0 nan nan nan nan nan nan nan nan nan nan nan nan nan nan nan nan 2 12
nan nan nan nan nan nan nan nan nan nan nan nan nan nan nan nan nan nan nan nan nan 0 0 0 nan nan nan nan nan nan nan nan nan nan nan nan 0 nan nan nan nan nan nan 67 239 239 284 142 70 70 14 nan nan nan nan nan nan nan nan nan nan nan nan nan nan nan nan 0 9
nan nan nan nan nan nan nan nan nan nan nan nan nan nan nan nan nan nan nan nan nan 0 0 0 nan nan nan nan nan nan nan nan nan 0 0 0 3 0 0 nan nan nan nan 71 176 176 267 203 113 113 38 nan nan nan nan nan nan nan nan nan nan nan nan nan nan nan nan nan 7
nan nan nan nan nan nan nan nan nan nan nan nan nan nan nan nan nan nan nan nan nan nan nan 0 0 nan nan nan nan nan nan nan nan 1 1 1 0 0 0 0 nan 1 1 79 129 129 227 270 165 165 68 6 nan nan nan nan nan nan nan nan nan nan nan nan nan nan nan nan 4
nan nan nan nan nan nan nan nan nan nan nan nan nan nan nan nan nan nan nan nan nan nan nan nan 0 0 0 nan nan nan nan 1 1 1 1 1 nan nan nan 3 1 24 24 95 118 118 196 278 191 191 101 21 nan nan nan nan nan nan nan nan nan nan nan nan nan nan nan nan nan
nan nan nan nan nan nan nan nan nan nan nan nan nan nan nan nan nan nan nan nan nan nan nan nan nan 0 0 0 0 0 1 3 1 0 0 nan nan nan nan nan 0 45 45 98 117 117 156 244 227 227 130 43 4 nan nan nan nan nan nan nan nan nan nan nan nan nan nan nan nan
nan nan nan nan nan nan nan nan nan nan nan nan nan nan nan nan nan nan nan nan nan nan nan nan nan 0 0 0 2 2 3 3 1 0 0 0 nan nan nan nan 0 45 45 87 106 106 137 209 278 278 158 45 5 nan nan nan nan nan nan nan nan nan nan nan nan nan nan nan nan
nan nan nan nan nan nan nan nan nan nan nan nan nan nan nan nan nan nan nan nan nan nan nan nan nan nan nan 0 2 2 3 1 0 nan nan 0 nan nan nan nan nan 11 11 52 81 81 123 180 258 258 190 37 3 0 0 1 1 nan nan nan nan nan nan nan nan nan nan nan nan
nan nan nan nan nan nan nan nan nan nan nan nan nan nan nan nan nan nan nan nan nan nan nan nan nan nan nan 0 1 1 1 1 0 nan nan nan nan nan nan nan nan 0 0 18 61 61 101 144 197 197 208 35 1 2 2 4 4 3 3 1 nan nan nan nan nan nan nan nan nan
nan nan nan nan nan nan nan nan nan nan nan nan nan nan nan nan nan nan nan nan nan nan nan nan nan nan nan nan 1 1 1 0 0 nan nan nan nan nan nan nan nan nan nan 5 41 41 78 121 164 164 187 41 4 7 7 9 7 4 4 5 5 nan nan nan nan nan nan nan nan
nan nan nan nan nan nan nan nan nan nan nan nan nan nan nan nan nan nan nan nan nan nan nan nan nan nan nan nan nan nan 0 nan nan nan nan nan nan nan nan nan nan nan nan 2 18 18 56 92 135 135 161 68 7 7 7 17 8 7 7 9 10 1 1 nan nan nan nan nan 1
nan nan nan nan nan nan nan nan nan nan nan nan nan nan nan nan nan nan nan nan nan nan nan nan nan nan nan nan nan nan nan nan nan nan nan nan nan 1 1 nan nan nan nan 0 6 6 25 65 106 106 135 94 10 2 2 15 15 11 11 10 10 8 8 0 nan nan nan nan 2
nan nan nan nan nan nan nan nan nan nan nan nan nan nan nan nan nan nan nan nan nan nan nan nan nan nan nan nan nan nan nan nan nan 0 0 0 0 4 4 nan nan nan nan nan 2 2 11 41 77 77 118 68 24 3 3 10 23 16 16 15 15 9 9 2 nan nan nan nan nan